Flag for U.S.A. Weather past 2 weeks in Pasadena, Texas, U.S.A.

Now
50 °F

Clear.


Feels Like: 50 °F
Forecast: 51 / 74 °F
Wind: No wind

Location: Houston / Ellington

Current Time: Mar 27, 2015 at 7:17:28 AM

Latest Report: Mar 27, 2015 at 6:50 AM


Visibility: 10 mi

Pressure: 30.14 "Hg

Humidity: 67%

Dew point: 39 °F

Location of PasadenaLocation

Historic Weather in Pasadena — Graph

°F

Pasadena temperature yesterday

Maximum temperature yesterday: 68 °F (at 7:50 AM)
Minimum temperature yesterday: 61 °F (at 10:50 PM)
Average temperature yesterday: 65 °F

Past Weeks' High & Low Weather Summary

 TemperatureHumidityPressure
High82 °F (Mar 17, 3:50 PM)100% (Mar 12, 6:50 AM)30.30 "Hg (Mar 12, 6:50 AM)
Low52 °F (Mar 27, 5:50 AM)44% (Mar 14, 5:50 PM)29.88 "Hg (Mar 26, 3:50 AM)
Average67 °F83%30.06 "Hg
* Reported Mar 12 5:50 AM — Mar 27 5:50 AM, Pasadena, Weather by CustomWeather, © 2015

Note: Actual official high and low records may vary slightly from our data, if they occured in-between our weather recording intervals... More about our weather records

Advertising

Pasadena weather history for previous 24 hours

 ConditionsComfort  
Time TempWeatherWind HumidityBarometerVisibility
5:50 AM
Fri, Mar 27
52 °FClear.No wind58%30.14 "Hg10 mi
4:50 AM54 °FClear.6 mph67%30.14 "Hg10 mi
2:50 AM57 °FClear.9 mph63%30.13 "Hg10 mi
1:50 AM59 °FPassing clouds.9 mph59%30.12 "Hg10 mi
12:50 AM59 °FPassing clouds.12 mph63%30.12 "Hg10 mi
11:50 PM
Thu, Mar 26
61 °FPassing clouds.8 mph77%30.10 "Hg10 mi
10:50 PM61 °FPassing clouds.9 mph77%30.10 "Hg10 mi
9:50 PM63 °FPassing clouds.10 mph83%30.07 "Hg10 mi
8:50 PM63 °FPassing clouds.10 mph83%30.04 "Hg10 mi
7:50 PM66 °FBroken clouds.10 mph78%30.02 "Hg10 mi
5:50 PM66 °FPartly sunny.12 mph78%30.00 "Hg10 mi
4:50 PM66 °FBroken clouds.14 mph78%29.98 "Hg10 mi
3:50 PM64 °FScattered clouds.17 mph83%29.96 "Hg10 mi
2:50 PM64 °FScattered clouds.21 mph83%29.94 "Hg10 mi
1:50 PM64 °FPartly sunny.21 mph83%29.96 "Hg7 mi
12:50 PM63 °FOvercast.18 mph88%29.95 "Hg7 mi
12:16 PM63 °FFog.18 mph100%29.96 "Hg5 mi
11:50 AM63 °FFog.20 mph100%29.98 "Hg4 mi
10:50 AM64 °FFog.13 mph100%29.98 "Hg4 mi
9:50 AM68 °FFog.8 mph100%29.96 "Hg4 mi
8:50 AM68 °FFog.3 mph100%29.94 "Hg2 mi
7:50 AM68 °FThunderstorms. Overcast.3 mph100%29.92 "Hg1 mi
Weather by CustomWeather, © 2015

See weather overviewHow to use our weather pages